Weather in Ozinki

Russia / Saratov Oblast     51°11′56″N   49°43′45″E
temp.,
°C
wind,
m/s
gust,
m/s
humid.,
%
clouds,
%
prec.,
mm/h
press.,
hPa
HPBL,
m
9 may, sun
sun901:00+15s2256100 0.0 101414
04:00+14sse345964 0.0 101448
07:00+16sse485311 0.0 1014188
10:00+22sse5638100 0.0 1013747
13:00+23s7839100 0.0 10132363
16:00+24s783260 0.0 10132345
19:00+21se4846100 0.0 1012188
22:00+17se5125476 0.0 1012200
10 may, mon
mon1001:00+17se61351100 0.0 1012281
04:00+15ese51155100 0.0 1013191
07:00+17ese71552100 0.0 1013395
10:00+22ese91339100 0.0 10131101
13:00+25ese101231100 0.0 10132435
16:00+25ese10123486 0.0 10132686
19:00+22e91544100 0.0 1014669
22:00+20e111843100 0.0 1015572
11 may, tue
tue1101:00+19e91846100 0.0 1015700
04:00+11sw5791100 0.0 1018224
07:00+12sw4580100 0.0 1021415
10:00+13wsw346976 0.1 1024564
13:00+18wnw01380 0.0 10241226
16:00+20ene4338100 0.0 10241457
19:00+14ssw3372100 1.1 1025189
22:00+13ne4893100 5.3 1025200
12 may, wed
wed1201:00+14ne61289100 1.8 1024399
04:00+15e81673100 1.8 1023392
07:00+15ese81763100 0.0 1024478
10:00+19ese9145637 0.0 1024752
13:00+17ese7126895 0.0 1025681
16:00+22se794795 0.1 10251159
19:00+19e51254100 0.0 1024321
22:00+18e6135193 0.1 1024304
13 may, thu
thu1301:00+17e7154899 0.0 1023337
04:00+15ese615538 0.0 1023276
07:00+16ese71455100 0.0 1024320
10:00+21ese794214 0.0 1024535
13:00+25se783823 0.0 10241088
16:00+25se783363 0.0 10231478
19:00+22ese59435 0.0 1024256
22:00+18ese494693 0.0 1024128